Blythe, CA

12:21 PM PDT on August 20, 2017 (GMT -0700)
Blythe

Weather History for KBLH - February, 2013

Change the Weather History Date:

Thursday, February 28, 2013

  Actual Average Record
Temperature  
Mean Temperature 60 °F -  
Max Temperature 75 °F 69 °F 91 °F (1986)
Min Temperature 45 °F 45 °F 35 °F (1971)
Degree Days  
Heating Degree Days 5    
Growing Degree Days 10 (Base 50)    
Moisture  
Dew Point 12 °F    
Average Humidity 15    
Maximum Humidity 23    
Minimum Humidity 8    
Precipitation  
Precipitation 0.00 in - - ()
Sea Level Pressure  
Sea Level Pressure 30.30 in    
Wind  
Wind Speed 8 mph (North)    
Max Wind Speed 14 mph    
Max Gust Speed 20 mph    
Visibility 10 miles    
Events      
Averages and records for this station are not official NWS values.
T = Trace of Precipitation, MM = Missing Value Source: NWS Daily Summary

Daily Weather History Graph

Daily Weather History Graph

Search for Another Location

Airport or City:

Trip Planner

Search our weather history database for the weather conditions in past years. The results will help you decide how hot, cold, wet, or windy it might be!

Date:

Astronomy

Feb. 28, 2013 Rise Set
Actual Time 6:08 AM PST 5:35 PM PST
Civil Twilight 5:43 AM PST 6:00 PM PST
Nautical Twilight 5:14 AM PST 6:28 PM PST
Astronomical Twilight 4:45 AM PST 6:57 PM PST
Moon 8:53 PM PST (2/28) 7:31 AM PST (2/28)
Length of Visible Light 12h 16m
Length of Day
11h 26m
Waning Gibbous, 90% of the Moon is Illuminated
Feb 28
Waning Gibbous
Mar 4
Last Quarter
Mar 11
New
Mar 19
First Quarter
Mar 27
Full

Hourly Weather History & Observations

Time (PST) Temp. Windchill Dew Point Humidity Pressure Visibility Wind Dir Wind Speed Gust Speed Precip Events Conditions
12:52 AM 53.1 °F - 1.9 °F 12% 30.28 in 10.0 mi NW 9.2 mph - N/A   Clear
1:52 AM 57.0 °F - 3.9 °F 12% 30.28 in 10.0 mi NNW 12.7 mph 16.1 mph N/A   Clear
2:52 AM 55.0 °F - 5.0 °F 13% 30.27 in 10.0 mi NNW 13.8 mph - N/A   Clear
3:52 AM 52.0 °F - 6.1 °F 16% 30.28 in 10.0 mi NNE 12.7 mph - N/A   Clear
4:52 AM 48.0 °F - 8.1 °F 20% 30.30 in 10.0 mi NNE 10.4 mph - N/A   Clear
5:52 AM 45.0 °F 41.2 °F 9.0 °F 23% 30.32 in 10.0 mi ENE 6.9 mph - N/A   Clear
6:52 AM 46.9 °F - 10.9 °F 23% 30.33 in 10.0 mi East 4.6 mph - N/A   Clear
7:52 AM 52.0 °F - 14.0 °F 22% 30.36 in 10.0 mi East 6.9 mph - N/A   Clear
8:52 AM 59.0 °F - 12.9 °F 16% 30.36 in 10.0 mi Calm Calm - N/A   Clear
9:52 AM 64.9 °F - 10.0 °F 12% 30.36 in 10.0 mi North 11.5 mph - N/A   Clear
10:52 AM 68.0 °F - 9.0 °F 10% 30.35 in 10.0 mi North 11.5 mph - N/A   Clear
11:52 AM 69.1 °F - 16.0 °F 13% 30.33 in 10.0 mi ESE 6.9 mph - N/A   Clear
1:52 PM 73.0 °F - 9.0 °F 8% 30.28 in 10.0 mi NE 4.6 mph - N/A   Clear
2:52 PM 75.9 °F - 10.0 °F 8% 30.27 in 10.0 mi North 12.7 mph 19.6 mph N/A   Clear
3:52 PM 75.0 °F - 10.0 °F 8% 30.25 in 10.0 mi Calm Calm - N/A   Clear
4:52 PM 72.0 °F - 19.9 °F 14% 30.24 in 10.0 mi SSE 6.9 mph - N/A   Clear
5:52 PM 66.9 °F - 19.9 °F 17% 30.25 in 10.0 mi South 3.5 mph - N/A   Clear
6:52 PM 63.0 °F - 19.9 °F 19% 30.27 in 10.0 mi WSW 4.6 mph - N/A   Clear
7:52 PM 63.0 °F - 18.0 °F 18% 30.27 in 10.0 mi WSW 3.5 mph - N/A   Clear
8:52 PM 59.0 °F - 15.1 °F 18% 30.29 in 10.0 mi NW 6.9 mph - N/A   Clear
9:52 PM 57.9 °F - 15.1 °F 19% 30.30 in 10.0 mi NNW 3.5 mph - N/A   Clear
10:52 PM 60.1 °F - 14.0 °F 16% 30.31 in 10.0 mi West 3.5 mph - N/A   Clear
11:52 PM 57.0 °F - 14.0 °F 18% 30.30 in 10.0 mi North 8.1 mph - N/A   Clear